Temp
65 65 65 65 65 65 66 66 65 65 65 65 65 65 65 65 65 65 63 71 73 71 69 71 69 68 68 65 65 64 53 49 54 56 57 62 59 63 63 66 63 64 63 67 71
65 65 65 65 65 65 65 65 65 64 65 65 65 65 65 64 63 61 70 73 72 70 71 68 65 67 62 62 60 56 51 56 63 60 59 62 63 63 61 60 59 62 65 69 69
63 65 64 65 65 65 64 64 64 64 64 64 64 64 64 64 59 61 72 72 71 71 73 71 70 66 59 60 58 57 54 59 63 65 66 63 60 63 60 57 63 60 63 65 65
62 64 64 64 65 65 64 64 63 63 63 64 64 64 63 60 49 65 70 71 70 70 69 69 65 58 57 58 64 54 62 61 63 64 64 62 65 64 62 64 68 65 66 64 63
61 63 63 64 64 64 63 63 63 63 63 63 63 63 62 53 57 68 68 69 69 69 67 66 63 59 55 57 61 58 57 62 61 62 62 66 60 61 61 64 65 65 66 64 64
61 62 62 63 63 63 63 63 63 63 63 63 63 63 60 50 67 68 67 66 68 67 66 66 64 66 60 60 58 61 59 59 60 59 61 62 57 58 63 64 63 65 63 63 63
61 62 62 62 63 63 63 63 63 62 63 63 63 64 57 57 67 67 67 65 67 67 64 67 67 63 61 56 61 61 57 57 55 58 56 59 54 58 61 63 62 63 60 62 64
61 61 61 62 62 63 63 63 62 62 62 63 63 57 51 65 64 67 67 66 68 69 69 70 69 64 60 60 58 55 53 47 55 59 56 57 51 61 62 62 60 60 59 62 63
61 61 61 61 62 62 63 61 61 62 63 63 57 53 52 66 63 66 66 64 66 65 66 72 66 59 57 51 46 46 42 46 49 57 55 53 50 58 58 59 58 57 58 60 62
60 60 61 61 61 62 62 61 61 61 62 64 64 50 56 55 62 65 65 66 62 61 61 60 56 50 49 45 37 42 43 45 46 52 50 47 51 55 56 57 57 55 56 58 60
60 60 61 61 61 62 60 56 51 48 54 50 51 53 56 62 65 61 65 63 61 56 47 53 46 42 48 51 52 49 47 46 44 52 51 49 50 54 55 53 54 55 56 58 59
60 60 60 61 61 61 59 52 56 56 45 54 56 57 60 62 55 58 65 55 53 46 51 46 41 51 55 54 52 49 46 43 45 50 48 47 49 52 55 56 56 57 56 58 58
59 59 60 61 61 59 55 55 63 65 48 51 54 55 56 59 53 54 61 56 51 48 48 43 50 55 54 51 50 46 46 44 45 45 46 43 43 49 55 55 57 58 59 60 61
59 59 59 60 55 57 53 62 65 61 40 44 49 55 56 57 51 61 62 57 52 49 49 48 54 53 49 48 50 44 50 49 46 42 38 42 35 42 50 54 53 57 57 59 60
59 58 59 60 57 52 59 59 60 58 26 46 48 61 57 53 54 53 57 55 49 50 50 46 49 48 47 50 53 47 50 48 45 40 37 36 36 41 46 48 54 56 56 56 56
58 59 59 58 58 59 59 59 58 37 25 40 47 47 48 51 49 52 54 55 55 51 48 47 50 50 50 49 52 50 47 45 41 38 31 37 38 37 45 52 52 52 55 55 52
58 59 59 59 52 60 58 52 33 24 44 37 39 46 46 43 45 47 45 44 43 38 37 44 44 47 50 46 48 47 40 28 29 27 29 33 33 41 48 54 55 57 52 51 51
58 58 58 56 61 58 53 44 24 37 39 44 43 46 42 46 44 45 44 43 45 45 39 36 34 45 48 47 43 43 43 31 24 24 28 33 31 43 50 51 52 54 54 51 49
57 55 54 56 60 57 48 32 31 39 45 41 43 40 38 45 44 43 41 47 48 47 41 38 38 46 48 48 51 42 38 44 32 17 24 31 37 46 49 50 48 47 49 49 48
53 51 51 58 59 52 41 35 40 47 48 47 36 40 34 41 39 39 41 47 46 50 51 46 36 42 45 48 46 44 49 37 33 20 20 29 31 39 43 47 46 47 47 46 47
51 45 51 58 56 44 33 35 42 48 51 44 40 38 41 40 40 40 41 45 50 51 51 48 39 35 42 41 40 42 40 41 40 32 26 22 32 43 50 48 50 48 46 46 46
45 36 51 56 40 39 32 40 47 45 48 47 47 45 43 44 41 42 41 47 54 54 47 47 37 28 36 43 45 44 42 42 33 29 30 31 37 47 48 47 49 46 47 44 44
39 38 46 53 34 34 37 41 45 43 44 46 45 48 48 44 38 42 45 47 52 52 50 47 34 20 31 37 39 38 41 43 41 34 33 26 39 45 45 46 48 45 44 44 44
37 33 37 45 40 40 37 36 37 46 45 48 46 49 45 43 44 40 42 44 46 49 48 52 37 35 32 35 40 36 40 44 43 30 35 33 42 41 41 43 42 42 43 43 43
33 31 34 32 35 41 42 41 37 37 43 47 43 47 46 39 40 40 41 42 45 46 47 47 29 36 38 41 40 38 38 42 42 43 37 43 43 50 47 48 49 46 42 43 42
32 32 35 35 40 41 41 38 38 41 41 40 41 45 48 41 43 39 40 41 40 43 42 43 27 33 27 39 40 34 39 40 43 43 42 40 42 50 48 46 43 47 43 42 42
35 38 38 38 39 38 38 38 41 42 41 46 46 44 42 39 42 43 44 43 43 42 39 34 30 26 26 35 36 28 32 38 39 43 45 39 48 48 45 49 48 47 45 46 46
MSLP
1007.73 1008.33 1008.98 1009.61 1010.16 1010.68 1011.10 1011.74 1012.16 1012.74 1013.01 1013.39 1013.81 1014.41 1014.59 1014.88 1015.48 1015.72 1015.08 1014.09 1014.12 1014.36 1014.67 1015.06 1015.67 1015.21 1015.01 1015.45 1015.46 1015.65 1015.98 1015.74 1015.37 1015.31 1015.02 1014.71 1014.90 1015.10 1015.20 1015.67 1016.32 1016.93 1017.46 1017.75 1018.50
1006.97 1007.67 1008.41 1009.12 1009.67 1010.25 1010.74 1011.34 1011.83 1012.41 1013.03 1013.36 1013.57 1014.34 1014.52 1014.66 1015.15 1015.18 1014.06 1013.62 1013.84 1013.99 1014.73 1015.04 1015.25 1015.24 1015.26 1015.48 1015.55 1015.67 1015.82 1014.93 1014.31 1014.40 1014.55 1014.70 1014.81 1015.23 1015.56 1016.24 1017.01 1017.57 1017.83 1018.26 1018.65
1006.38 1006.98 1007.65 1008.57 1009.17 1009.90 1010.55 1011.13 1011.56 1012.34 1012.95 1013.34 1013.52 1013.99 1014.34 1014.31 1015.17 1013.67 1013.26 1013.59 1013.84 1013.76 1014.11 1014.74 1014.84 1015.11 1015.08 1015.34 1015.37 1015.32 1015.25 1014.76 1014.16 1013.81 1013.84 1014.64 1015.06 1015.03 1015.53 1016.45 1016.65 1017.73 1018.32 1018.51 1018.85
1005.61 1006.35 1007.17 1008.04 1008.59 1009.52 1010.29 1010.84 1011.46 1012.21 1012.91 1013.35 1013.63 1013.90 1014.41 1014.55 1014.05 1012.57 1012.47 1013.18 1013.72 1013.88 1014.16 1014.70 1014.81 1015.21 1015.03 1015.21 1015.01 1015.23 1014.69 1014.53 1014.43 1014.21 1014.33 1014.86 1014.88 1015.20 1015.57 1015.78 1015.73 1016.90 1017.57 1018.33 1018.92
1004.66 1005.76 1006.73 1007.71 1008.25 1009.27 1010.02 1010.53 1011.15 1011.87 1012.70 1013.41 1013.81 1013.92 1014.20 1014.56 1013.13 1012.33 1012.59 1013.27 1013.72 1014.08 1014.23 1014.46 1014.64 1014.92 1014.93 1015.07 1014.85 1015.10 1015.06 1014.67 1014.73 1014.61 1014.57 1014.75 1015.18 1015.26 1015.63 1015.82 1015.97 1016.83 1017.80 1018.23 1018.73
1003.92 1004.72 1006.17 1007.28 1007.80 1009.08 1009.60 1010.39 1011.06 1011.69 1012.49 1013.12 1013.73 1014.47 1013.98 1013.64 1012.28 1012.29 1012.77 1013.53 1013.69 1013.97 1014.10 1014.13 1014.33 1014.15 1014.53 1014.74 1014.60 1014.86 1015.15 1015.15 1015.05 1015.09 1015.05 1015.09 1015.72 1015.53 1015.76 1016.08 1016.33 1017.13 1017.72 1018.13 1018.44
1003.38 1003.70 1005.57 1006.46 1007.45 1008.69 1009.37 1010.11 1010.87 1011.44 1012.24 1013.10 1013.58 1013.71 1013.47 1012.50 1012.11 1012.21 1012.72 1013.13 1013.42 1013.69 1013.99 1013.77 1013.96 1014.18 1014.10 1014.84 1014.58 1014.94 1015.66 1015.65 1015.65 1015.60 1015.68 1015.63 1016.12 1015.79 1015.59 1016.16 1016.67 1017.44 1017.67 1018.00 1018.10
1002.59 1003.37 1005.04 1006.00 1006.52 1008.47 1009.16 1010.06 1010.89 1011.64 1012.32 1013.17 1013.62 1013.65 1013.34 1012.43 1012.23 1012.43 1012.72 1013.04 1013.39 1013.66 1013.73 1013.59 1013.70 1014.06 1014.35 1014.89 1015.02 1015.35 1016.15 1016.33 1015.93 1015.84 1016.17 1016.07 1016.23 1015.63 1015.62 1016.34 1016.86 1017.31 1017.64 1017.69 1017.85
1002.22 1003.07 1004.31 1005.41 1005.85 1007.90 1009.16 1010.25 1010.95 1011.69 1012.62 1013.17 1014.05 1013.85 1013.08 1012.49 1012.53 1012.57 1012.46 1012.85 1013.45 1013.69 1013.69 1013.51 1013.75 1014.62 1015.11 1015.54 1016.19 1016.03 1016.56 1016.56 1016.51 1016.25 1016.40 1016.70 1016.56 1015.76 1015.68 1016.30 1016.98 1017.17 1017.47 1017.35 1017.25
1001.40 1002.53 1003.89 1004.76 1005.29 1007.60 1009.14 1010.77 1011.33 1011.96 1012.95 1013.33 1013.23 1013.81 1012.61 1011.91 1012.06 1012.32 1012.55 1012.59 1013.38 1014.00 1014.32 1014.36 1014.74 1015.24 1015.61 1016.08 1016.43 1016.53 1016.58 1016.70 1016.79 1016.81 1016.85 1017.07 1016.85 1016.52 1016.21 1016.56 1017.05 1017.10 1017.25 1017.31 1016.92
1000.83 1002.38 1003.47 1004.11 1005.26 1007.09 1009.09 1010.81 1011.24 1012.53 1011.92 1011.20 1011.27 1011.62 1010.79 1011.42 1011.80 1012.23 1012.48 1012.78 1013.47 1014.45 1015.10 1015.06 1015.42 1015.41 1015.89 1015.90 1015.70 1015.96 1016.53 1016.50 1017.20 1017.07 1017.11 1017.27 1017.14 1016.63 1016.31 1016.67 1016.84 1017.08 1016.90 1016.94 1016.72
1000.35 1001.84 1003.22 1003.68 1005.30 1006.35 1008.20 1008.62 1007.48 1007.53 1010.65 1011.07 1010.97 1011.34 1010.84 1010.81 1011.91 1012.33 1012.22 1013.05 1013.56 1014.62 1015.21 1015.55 1015.29 1015.30 1015.30 1015.61 1016.01 1015.86 1016.31 1016.97 1017.59 1017.57 1017.66 1017.71 1017.19 1016.60 1016.25 1015.97 1015.91 1016.48 1016.42 1016.35 1016.22
999.92 1001.27 1002.79 1003.70 1005.09 1006.48 1007.26 1008.01 1007.66 1007.18 1009.71 1010.91 1010.97 1010.97 1011.06 1011.04 1011.54 1012.13 1012.25 1012.81 1013.54 1014.27 1014.91 1015.12 1014.78 1014.97 1015.28 1015.49 1016.02 1016.22 1016.54 1017.22 1017.64 1018.03 1018.22 1018.36 1017.90 1016.74 1015.37 1015.26 1015.00 1015.23 1014.99 1015.46 1015.49
999.33 1000.47 1002.53 1003.51 1005.72 1006.37 1007.20 1007.12 1007.32 1006.72 1009.23 1010.92 1010.97 1010.70 1011.00 1010.98 1011.77 1011.79 1011.93 1012.36 1013.23 1013.96 1014.62 1014.93 1014.52 1014.94 1015.23 1015.40 1015.81 1016.57 1016.65 1017.25 1018.16 1018.85 1019.18 1019.17 1018.60 1016.67 1015.45 1014.97 1014.72 1014.60 1014.66 1014.89 1015.02
998.80 1000.52 1002.08 1002.66 1003.83 1005.21 1005.31 1006.71 1007.33 1007.20 1009.21 1010.48 1010.66 1010.03 1010.64 1011.19 1011.42 1012.05 1011.81 1011.98 1012.56 1013.29 1013.91 1014.26 1014.41 1014.85 1015.17 1015.23 1015.67 1016.80 1017.17 1017.91 1018.70 1019.64 1019.97 1019.92 1019.48 1016.54 1015.57 1014.94 1014.35 1013.80 1014.02 1014.53 1014.99
998.85 1000.29 1001.77 1002.90 1004.36 1005.25 1005.65 1006.83 1007.82 1008.37 1008.55 1009.62 1009.57 1010.05 1011.01 1011.33 1011.81 1011.95 1011.93 1012.13 1012.36 1013.12 1013.92 1014.41 1014.35 1014.69 1014.92 1015.56 1015.93 1016.99 1017.97 1019.10 1020.07 1021.00 1021.39 1020.24 1019.75 1017.19 1015.66 1014.34 1013.70 1013.56 1013.91 1014.46 1015.29
998.49 999.90 1001.45 1002.81 1003.31 1004.70 1005.74 1006.84 1008.97 1008.00 1007.98 1009.50 1009.19 1009.73 1010.68 1011.53 1012.06 1011.69 1012.15 1012.37 1012.32 1013.32 1014.40 1014.86 1015.15 1015.16 1015.11 1016.03 1016.81 1017.12 1018.62 1020.99 1022.25 1022.88 1022.10 1021.00 1019.97 1016.54 1014.76 1013.59 1013.24 1013.54 1014.18 1014.89 1015.61
998.30 1000.14 1001.44 1002.68 1003.33 1004.84 1005.78 1007.32 1007.79 1006.74 1007.31 1008.12 1008.61 1010.02 1010.81 1011.29 1011.97 1011.94 1012.47 1012.60 1012.60 1012.41 1014.51 1014.81 1015.88 1015.52 1015.43 1015.73 1016.56 1017.44 1018.08 1019.60 1021.44 1022.83 1022.19 1021.18 1018.86 1015.55 1013.78 1013.27 1013.04 1013.30 1014.05 1015.19 1016.02
998.24 1000.14 1001.72 1002.68 1003.28 1004.53 1005.43 1006.34 1005.19 1005.33 1006.30 1007.43 1008.83 1009.80 1010.68 1010.79 1011.06 1012.02 1012.07 1011.92 1012.19 1011.76 1013.15 1014.38 1015.32 1015.58 1015.74 1015.64 1015.95 1017.25 1017.74 1018.63 1020.66 1022.78 1022.31 1020.34 1017.91 1015.61 1014.02 1013.60 1013.59 1014.13 1014.89 1015.76 1016.50
997.45 999.87 1001.65 1002.42 1003.03 1004.56 1005.46 1004.99 1005.00 1004.89 1005.71 1006.54 1007.59 1008.41 1009.10 1009.99 1010.51 1010.91 1011.67 1011.46 1011.44 1011.43 1011.57 1013.31 1015.39 1016.17 1016.16 1015.98 1016.17 1016.15 1017.10 1018.57 1019.99 1021.79 1022.22 1020.10 1018.22 1015.45 1014.38 1013.80 1014.04 1014.69 1015.28 1016.03 1016.67
997.53 1000.11 1001.67 1002.63 1003.55 1005.16 1004.55 1005.18 1005.01 1004.64 1004.66 1005.58 1006.43 1007.38 1008.18 1008.85 1009.55 1010.22 1011.02 1010.81 1010.72 1011.34 1011.99 1012.95 1014.53 1016.90 1016.66 1016.03 1015.80 1016.44 1016.79 1017.76 1018.80 1020.06 1020.59 1019.79 1016.83 1014.04 1013.35 1013.37 1013.77 1014.16 1015.17 1016.09 1016.99
997.98 1000.37 1001.58 1001.97 1003.97 1004.53 1004.89 1004.56 1004.36 1004.76 1004.41 1004.84 1005.27 1006.09 1007.05 1008.51 1009.10 1009.84 1010.09 1009.86 1009.99 1010.49 1011.69 1012.86 1014.92 1016.74 1016.30 1015.99 1015.50 1015.44 1015.81 1016.63 1018.08 1019.46 1019.40 1018.63 1014.70 1013.41 1013.12 1013.37 1013.57 1014.30 1015.17 1016.10 1017.09
999.00 1001.13 1001.91 1001.07 1001.66 1003.63 1004.44 1004.70 1004.57 1004.61 1004.43 1004.49 1004.89 1005.21 1005.95 1007.59 1009.16 1009.66 1009.73 1009.77 1009.51 1010.10 1010.62 1012.03 1014.00 1016.35 1016.95 1016.72 1016.17 1015.71 1016.02 1016.27 1017.05 1017.92 1017.95 1018.00 1013.92 1013.96 1013.54 1013.56 1013.85 1014.60 1015.54 1016.53 1017.35
999.89 1000.83 1001.43 1001.54 1001.58 1002.69 1003.93 1004.50 1004.49 1004.44 1004.41 1004.23 1004.67 1005.07 1006.23 1007.69 1008.33 1009.34 1009.85 1010.15 1010.02 1010.17 1010.71 1011.58 1013.22 1014.12 1014.74 1014.87 1015.33 1015.81 1015.61 1015.73 1016.41 1017.30 1016.35 1016.09 1013.89 1013.84 1013.74 1014.06 1014.50 1015.03 1015.76 1016.37 1017.08
999.99 1000.81 1000.57 1000.79 1001.78 1002.08 1003.24 1003.63 1004.56 1004.70 1004.41 1004.36 1005.06 1005.04 1005.65 1007.62 1008.67 1009.10 1009.81 1010.66 1010.57 1010.75 1011.22 1011.87 1013.71 1015.00 1015.17 1014.85 1014.84 1014.97 1015.02 1015.42 1015.69 1015.25 1015.84 1014.14 1014.45 1012.10 1013.65 1014.03 1014.30 1015.02 1016.05 1016.63 1017.16
1000.45 1000.69 1000.93 1001.10 1001.33 1002.22 1002.93 1003.56 1003.79 1004.24 1004.51 1004.81 1005.09 1005.50 1005.88 1006.72 1007.52 1008.77 1009.41 1010.37 1010.69 1011.53 1012.15 1012.91 1014.85 1015.45 1016.49 1015.81 1015.39 1015.24 1015.05 1014.88 1014.73 1015.20 1014.57 1014.51 1013.18 1012.84 1013.24 1013.71 1014.32 1015.01 1015.85 1016.54 1016.80
1000.77 1000.73 1000.49 1001.09 1001.73 1002.41 1002.29 1003.08 1003.72 1004.25 1005.27 1005.05 1005.20 1006.01 1006.87 1008.20 1008.58 1009.37 1009.55 1010.50 1010.83 1011.59 1013.04 1014.16 1015.46 1016.82 1017.75 1016.69 1016.03 1015.58 1014.48 1014.47 1014.41 1014.03 1013.89 1014.18 1011.23 1012.98 1013.48 1013.79 1013.95 1014.69 1015.07 1015.47 1015.57
Wind_Speed
26 25 23 21 20 19 17 18 16 16 14 14 13 11 12 11 10 3 6 8 7 7 5 4 5 4 4 1 2 1 3 3 4 6 6 5 4 3 3 7 4 4 3 8 12
27 26 24 23 22 20 18 17 16 16 15 14 14 13 12 13 3 7 7 8 9 13 7 8 6 7 3 4 0 4 3 5 5 6 7 7 8 7 5 5 4 6 7 10 10
28 27 25 24 22 20 18 17 16 14 14 14 14 13 12 8 4 9 15 10 11 11 5 6 6 3 4 4 3 4 4 4 7 3 10 10 5 5 10 2 7 13 11 10 8
28 27 25 24 22 21 20 17 17 15 15 13 13 13 12 2 8 1 5 17 11 7 3 4 5 3 4 6 4 1 4 2 3 5 6 8 7 6 6 6 7 15 17 10 9
28 25 24 24 21 21 20 18 19 18 16 15 12 14 6 2 7 3 7 9 7 7 7 7 6 6 5 4 7 3 1 4 2 6 5 5 3 3 5 5 7 13 13 12 11
28 28 24 23 22 24 21 19 19 18 17 17 18 15 4 5 3 8 9 8 5 6 6 6 7 7 6 5 6 4 4 3 3 3 4 6 1 2 5 6 10 15 12 12 13
29 28 26 25 23 23 22 20 19 17 17 16 16 6 0 10 5 8 9 6 4 5 5 5 3 5 2 5 3 6 5 3 2 2 1 3 1 6 2 9 11 11 9 10 13
30 31 28 25 27 22 22 20 18 17 15 14 13 1 5 0 5 6 5 5 6 4 4 6 4 4 4 2 4 7 5 4 2 6 1 3 6 7 8 10 10 10 9 9 12
31 29 28 27 27 23 23 20 17 16 14 14 5 3 5 3 5 6 6 8 6 2 2 3 4 4 3 7 4 1 5 4 1 5 3 2 6 3 4 7 8 8 9 9 9
31 30 30 28 28 24 25 20 19 16 9 5 2 2 4 6 5 7 5 11 6 5 4 3 3 4 3 4 6 5 5 4 6 5 3 3 8 6 3 5 8 8 8 8 10
31 31 30 30 30 31 25 13 10 5 9 7 10 4 12 6 5 4 6 7 7 5 5 4 5 7 9 9 4 7 6 6 0 2 4 6 7 9 7 5 8 9 8 8 9
34 33 30 32 32 32 20 8 13 11 10 3 6 1 2 5 6 6 8 6 7 6 5 4 5 8 8 6 4 3 6 4 2 0 2 3 9 9 7 8 9 10 9 10 6
34 33 30 32 33 20 19 6 8 19 7 3 3 5 4 3 6 12 13 6 8 9 7 7 7 8 9 7 8 3 6 5 5 2 3 3 8 7 9 7 6 9 8 9 11
34 34 32 34 21 18 12 12 11 1 6 4 5 4 4 3 4 5 8 6 6 14 10 6 6 12 7 5 6 5 4 7 9 4 4 3 7 7 5 9 7 12 10 11 10
35 35 36 30 15 18 17 6 4 3 9 14 6 4 6 5 11 4 2 1 9 7 7 7 8 9 6 9 7 6 7 7 4 4 2 3 1 9 5 4 8 11 10 9 8
37 37 35 14 10 18 10 7 5 4 8 10 9 10 9 5 1 5 5 0 4 5 5 3 0 3 6 4 7 8 9 10 6 4 2 6 6 7 5 9 6 3 5 8 9
37 36 28 11 14 15 9 7 4 6 6 8 8 11 11 6 4 4 8 7 8 8 4 3 3 2 4 10 6 8 7 4 3 2 7 3 4 8 6 9 8 8 6 7 8
36 34 18 3 17 12 5 9 6 6 8 3 9 16 10 12 2 7 11 10 6 6 5 7 2 6 2 7 10 10 9 8 9 6 5 3 9 8 10 5 4 6 7 7 7
35 15 12 10 19 9 12 16 12 11 9 10 10 19 6 10 10 6 9 18 9 8 8 6 2 2 3 2 10 5 5 6 8 3 4 6 8 9 9 8 6 4 6 7 8
14 13 13 17 17 8 12 11 4 7 12 18 8 7 8 20 7 8 15 9 7 9 3 4 6 3 1 2 2 5 8 3 3 5 3 6 7 8 4 11 5 7 10 8 6
10 11 13 16 10 9 17 8 5 2 17 9 7 8 9 15 7 10 16 5 11 13 6 5 6 1 3 7 8 4 4 2 5 6 7 1 9 8 11 8 10 10 6 9 9
5 6 13 17 14 11 11 7 4 4 3 5 6 6 12 18 6 10 12 9 15 16 16 6 7 5 9 3 5 3 5 6 7 4 3 4 12 3 5 3 6 3 7 6 5
7 4 1 19 18 21 6 4 4 4 3 5 5 4 6 11 6 5 7 2 14 17 20 10 3 4 3 4 3 4 4 3 4 4 9 8 11 4 3 5 5 4 5 6 7
5 7 1 11 3 24 15 7 4 3 4 4 6 5 9 13 3 9 6 1 2 6 9 11 4 9 11 6 8 8 8 11 7 5 6 11 13 2 3 3 1 3 6 8 8
2 3 1 14 12 26 17 16 9 7 1 4 3 9 12 8 5 7 5 4 4 2 5 8 7 5 4 6 6 6 9 13 16 15 9 15 17 15 7 6 8 6 6 7 8
3 4 0 7 19 24 20 18 16 9 8 7 8 7 10 11 7 11 10 5 6 3 4 1 1 5 4 6 6 3 8 11 16 8 14 4 20 9 4 3 2 8 8 8 9
2 2 1 11 22 19 19 20 23 15 4 7 11 7 8 4 12 8 10 8 7 7 5 5 6 4 3 1 6 9 10 10 6 7 10 15 28 3 2 8 8 8 10 13 14
Wind_Direction
201 194 189 190 190 187 187 179 179 183 181 168 163 160 155 134 128 178 222 216 183 167 123 140 218 212 112 135 155 15 82 216 233 165 176 163 114 34 136 104 57 33 119 156 150
200 193 190 190 189 185 182 183 178 176 183 172 154 160 148 145 107 233 239 238 180 152 153 164 183 172 119 168 184 113 139 222 215 153 163 159 139 148 100 107 68 60 58 123 132
208 192 191 190 187 187 182 185 174 178 179 166 156 154 149 133 118 237 199 206 174 161 155 187 155 173 147 135 185 199 202 302 341 75 141 157 143 159 119 178 183 156 156 149 150
202 192 188 190 181 183 184 186 171 175 176 165 154 147 144 135 175 183 217 175 174 155 106 199 165 186 142 153 204 238 252 341 7 3 124 154 137 142 146 199 194 162 161 154 163
191 186 185 184 173 183 180 181 169 170 170 169 151 143 134 176 241 146 135 135 135 151 189 183 155 156 166 204 126 187 246 58 16 57 66 126 109 145 153 138 111 141 159 163 172
187 177 180 180 171 184 175 180 165 165 166 169 161 177 150 190 172 138 135 140 163 166 187 162 190 192 181 185 145 175 118 107 63 34 46 111 88 128 201 146 113 151 168 174 179
183 172 176 172 166 180 170 171 159 159 157 163 166 177 293 214 157 139 134 157 169 169 170 205 202 174 155 124 180 124 99 75 157 182 135 110 2 233 181 161 145 166 182 189 199
187 172 173 170 157 172 171 154 151 150 149 157 159 142 227 297 145 134 161 129 159 227 256 182 111 120 105 115 59 120 86 127 276 149 288 110 248 252 220 162 179 186 199 197 214
178 171 167 165 151 165 163 137 137 134 139 136 127 184 226 150 149 187 139 139 125 90 25 89 81 128 75 119 53 40 161 150 276 206 114 140 250 297 170 170 201 208 216 219 225
170 165 164 158 145 152 143 127 126 117 133 165 245 156 174 197 166 156 189 135 122 103 48 101 95 116 73 91 179 162 141 159 182 223 128 151 252 273 320 173 225 239 248 230 218
162 163 160 149 145 144 128 143 133 129 195 187 176 248 152 146 99 154 154 129 105 101 155 211 124 177 184 185 182 151 166 142 76 263 142 208 257 256 260 223 244 242 238 248 235
159 158 158 146 148 144 143 194 171 132 141 333 174 104 55 130 117 180 120 132 124 154 148 71 197 203 178 197 163 133 153 130 89 290 150 199 260 257 242 228 201 221 233 235 243
158 155 156 147 144 145 161 228 179 128 119 53 83 138 177 103 132 181 152 156 150 159 166 146 214 194 169 168 154 176 162 170 149 134 5 21 295 253 252 241 227 218 209 215 215
157 149 156 143 146 156 180 204 183 146 96 174 170 214 137 187 115 192 180 146 156 184 155 175 231 183 149 161 130 143 137 126 121 101 209 128 272 294 243 247 210 233 218 221 219
155 154 158 152 135 172 175 131 153 40 144 157 168 155 152 162 136 215 114 38 164 166 131 209 155 151 153 170 142 190 138 132 118 96 82 263 55 267 278 247 244 233 231 225 233
157 157 156 146 144 163 119 131 64 84 193 176 147 163 143 159 81 131 130 28 149 113 56 129 182 95 158 80 121 148 82 44 46 75 303 232 174 268 216 214 239 208 244 181 144
156 156 155 141 159 151 138 109 141 156 159 162 163 159 156 144 115 129 151 173 156 122 133 79 54 346 113 82 5 101 87 42 23 353 223 7 241 241 254 241 198 192 174 161 148
156 152 157 127 143 153 118 139 154 186 178 145 135 142 165 139 107 162 136 185 251 116 127 145 188 170 191 153 173 167 162 158 181 195 229 9 240 256 245 237 222 185 184 155 142
150 152 153 147 151 157 160 180 192 169 144 123 96 150 154 182 135 141 190 193 192 174 140 130 173 53 80 109 146 221 196 167 106 32 68 231 293 288 258 248 221 172 127 167 166
153 142 159 153 145 148 172 183 154 170 116 139 141 177 161 175 134 153 169 196 189 184 120 159 115 9 143 154 65 161 154 103 7 121 253 280 270 239 278 252 251 215 203 197 189
142 145 153 151 124 162 188 195 142 151 136 142 151 146 169 176 136 176 178 190 178 198 124 142 105 268 134 212 157 127 178 122 120 150 166 216 260 224 212 212 233 246 199 191 196
121 123 154 155 157 189 181 180 128 155 100 132 119 118 158 171 144 176 182 198 187 168 196 172 119 164 198 254 206 137 184 152 158 238 217 163 254 245 136 129 180 216 197 189 175
105 114 194 167 175 184 160 153 171 139 154 144 117 133 139 153 131 159 183 355 173 173 177 175 184 78 50 335 353 187 171 187 123 77 212 141 257 360 90 66 46 126 140 153 146
113 127 352 182 70 164 173 164 128 43 131 112 113 99 110 155 111 172 138 109 30 150 146 148 144 177 189 191 149 178 192 201 169 186 186 232 263 255 75 55 105 168 177 175 185
57 111 218 169 188 172 171 160 158 158 111 131 84 166 149 140 126 150 130 130 45 78 133 143 160 124 135 118 125 168 186 195 207 209 185 252 248 254 216 253 242 215 178 192 209
91 130 77 114 153 163 175 183 177 143 149 169 139 163 158 155 166 158 137 146 174 63 107 28 98 98 342 143 148 201 203 204 219 204 244 277 269 103 168 125 205 223 202 221 233
36 311 105 142 160 163 187 169 181 142 354 136 154 128 115 95 89 74 77 71 127 133 124 102 122 90 217 120 71 288 183 197 192 193 210 224 247 59 248 233 247 232 211 218 227